User: anonymous   Login
Location: Strawberry
(45.6646°N, 111.9596°W)
Time: 12:51:53
(UTC+00:00)
Language:

S-56A Canister/Altair - Orbit

View from above orbital plane
View from above orbital plane
View from above satellite
View from above satellite

Ground track
Ground track

The orbit data is extracted from the following two-line orbital elements,

1 00082U 61004B   22277.83880960  .00000174  00000-0  17842-3 0  9990
2 00082  38.8567 330.4533 1169890 174.3925 187.1245 12.26027070910831
Epoch (UTC): 04 October 2022 20:07:53
Eccentricity: 0.1169890
inclination: 38.8567°
perigee height: 637 km
apogee height: 2496 km
right ascension of ascending node: 330.4533°
argument of perigee: 174.3925°
revolutions per day: 12.26027070
mean anomaly at epoch: 187.1245°
orbit number at epoch: 91083

The dashed part of the orbit path shows where the satellite is in the earth's shadow,  

DLR